[[{"header":{"parameterUnit":"m.s-1","parameterCategory":1,"la1":30.2991,"la2":30.254,"lo1":-89.0895,"lo2":-89.0444,"dy":0.0017,"dx":0.0017,"nx":28,"ny":28,"refTime":"2025-02-13T09:00:00:Z","depth":0,"parameterNumber":2,"parameterNumberName":"U-component_of_WINDS"},"data":[0,0,0,0,0,0,0,0,0,0,0,0,0,0,0,0,0,0,0,0,0,0,0,0,0,0,0,0,0,0,0,0,0,0,0,0,0,0,0,0,0,0,0,0,0,0,0,0,0,0,0,0,0,0,0,0,0,0,-4.8575,-4.8576,0,-4.864,-4.8641,-4.8641,-4.851,-4.8505,-4.8501,-4.8497,-4.8566,-4.8572,-4.8578,0,0,0,0,0,0,0,0,0,0,0,0,0,-4.834,-4.8345,-4.8575,-4.8576,-4.8577,-4.864,-4.8641,-4.8641,-4.851,-4.8505,-4.85,-4.8495,-4.8564,-4.8571,-4.8578,0,0,0,0,0,0,0,0,0,0,0,0,0,-4.8427,-4.8346,-4.8575,-4.8519,-4.8514,-4.8639,-4.8641,-4.8642,-4.8512,-4.8505,-4.8499,-4.8493,-4.8562,-4.8571,-4.8579,-4.8763,0,0,-4.8606,-4.861,0,0,0,0,0,0,0,0,-4.8422,-4.8436,-4.8526,-4.8523,-4.8518,-4.856,-4.8583,-4.8682,-4.8513,-4.8513,-4.8497,-4.8489,-4.857,-4.8577,-4.8604,-4.8766,-4.8769,-4.8607,-4.8612,-4.8616,-4.8618,0,0,0,0,0,0,0,-4.8416,-4.8432,-4.8601,-4.8528,-4.8523,-4.8491,-4.8496,-4.8601,-4.8577,-4.8512,-4.8503,-4.8512,-4.8566,-4.8596,-4.8604,-4.877,-4.8607,-4.8614,-4.862,-4.8623,-4.9085,-4.9092,0,0,0,0,0,0,-4.8417,-4.8428,-4.8599,-4.8603,-4.8453,-4.85,-4.8506,-4.8553,-4.8575,-4.8572,-4.8518,-4.8506,-4.8584,-4.8594,-4.8606,-4.8823,-4.8616,-4.8624,-4.8629,-4.9078,-4.9087,-4.9094,0,0,0,0,0,0,-4.8413,-4.8434,-4.8596,-4.8513,-4.8531,-4.8511,-4.8565,-4.8558,-4.8587,-4.8579,-4.8574,-4.8552,-4.8579,-4.8594,-4.8724,-4.8823,-4.8628,-4.8636,-4.907,-4.9081,-4.909,-4.9257,0,0,0,0,0,0,-4.8406,-4.8433,-4.8502,-4.8515,-4.8536,-4.8713,-4.8571,-4.8564,-4.8602,-4.8587,-4.861,-4.8608,-4.8575,-4.8712,-4.8733,-4.8832,-4.8643,-4.9061,-4.9075,-4.9087,-4.9243,-4.9272,-4.9297,0,0,0,0,0,-4.8398,-4.8547,-4.8506,-4.8528,-4.8622,-4.8719,-4.8731,-4.869,-4.8611,-4.8681,-4.8675,-4.8607,-4.8808,-4.8727,-4.8749,-4.8852,-4.9055,-4.9071,-4.9086,-4.9231,-4.9266,-4.9296,0,0,0,0,0,0,-4.8548,-4.8548,-4.8503,-4.866,-4.8691,-4.8697,-4.8784,-4.8729,-4.8783,-4.8767,-4.8714,-4.872,-4.8861,-4.8869,-4.8778,-4.903,-4.8918,-4.8939,-4.902,-4.9054,-4.9081,-4.9077,-4.865,0,0,0,0,0,-4.8599,-4.8677,-4.8673,-4.8812,-4.883,-4.8805,-4.8845,-4.881,-4.884,-4.8853,-4.8857,-4.8889,-4.8959,-4.9006,-4.9071,-4.9242,-4.9245,-4.9324,-4.9351,-4.9373,-4.9393,-4.9484,-4.9519,-4.9146,-4.9146,-4.9145,0,0,-4.8706,-4.8715,-4.8768,-4.8843,-4.8862,-4.8945,-4.8816,-4.8909,-4.897,-4.8867,-4.899,-4.8994,-4.9026,-4.9178,-4.9245,-4.9189,-4.9496,-4.9393,-4.9411,-4.9419,-4.9504,-4.9539,-4.9571,-4.9156,-4.9155,-4.9153,0,0,-4.8943,-4.8958,-4.9075,-4.9097,-4.9127,-4.9109,-4.9137,-4.9152,-4.915,-4.9273,-4.9196,-4.9268,-4.939,-4.9416,-4.9445,-4.969,-4.963,-4.9712,-4.9855,-4.9945,-4.9974,-5.0,-5.0088,-5.012,-4.9731,-4.9732,-4.9732,0,-4.9073,-4.9193,-4.9143,-4.9241,-4.9276,-4.9184,-4.9303,-4.9327,-4.9378,-4.9404,-4.934,-4.949,-4.9505,-4.9662,-4.9721,-4.9748,-4.9779,-4.9711,-4.9974,-4.9999,-5.0022,-5.0106,-5.0139,-4.9742,-4.9741,-4.974,-4.9739,0,-4.9351,-4.9436,-4.9527,-4.9577,-4.9622,-4.973,-4.9697,-4.9748,-4.9709,-4.9698,-4.9823,-4.9838,-4.9903,-4.9937,-4.99,-5.0089,-5.0053,-4.9982,-4.9869,-5.0069,-5.0146,-5.0178,-4.9756,-4.9752,-4.9749,-4.9747,0,0,-4.9688,-4.9706,-4.9741,-4.9762,-4.9787,-4.9852,-4.9956,-5.0018,-5.0064,-5.0101,-5.0187,-5.0291,-5.0225,-5.0259,-5.0223,-5.0302,-5.0495,-5.0221,-5.0221,-5.0273,-5.0704,-5.0759,-5.0796,-5.0454,-5.046,-5.0465,-5.0702,0,-4.9923,-5.0101,-5.0058,-5.0234,-5.0312,-5.0224,-5.0314,-5.034,-5.0332,-5.0397,-5.0387,-5.0462,-5.0369,-5.0389,-5.0462,-5.0456,-5.0581,-5.0438,-5.0535,-5.0539,-5.0532,-5.0837,-5.0895,-5.1118,-5.0732,-5.0737,-5.074,0,-5.0223,-5.027,-5.0454,-5.0466,-5.0497,-5.0579,-5.0632,-5.0695,-5.0722,-5.071,-5.0746,-5.0695,-5.0797,-5.0681,-5.0822,-5.0726,-5.0762,-5.0765,-5.0773,-5.0782,-5.0653,-5.0856,-5.1188,-5.1222,-5.0788,-5.0784,-5.078,0,-5.0451,-5.056,-5.0684,-5.0705,-5.0721,-5.0781,-5.0791,-5.0811,-5.0851,-5.0897,-5.0923,-5.0981,-5.1014,-5.106,-5.1026,-5.0945,-5.1173,-5.1054,-5.1167,-5.1168,-5.1221,-5.1218,-5.1566,-5.1242,-5.1241,-5.1241,-5.124,0,-5.072,-5.0836,-5.0787,-5.0864,-5.0991,-5.0939,-5.1067,-5.1067,-5.1085,-5.116,-5.1088,-5.116,-5.1109,-5.1177,-5.1151,-5.1272,-5.1287,-5.1281,-5.1273,-5.1289,-5.129,-5.1313,-5.1298,-5.125,-5.1248,-5.1246,-5.1244,0,-5.0998,-5.0969,-5.1098,-5.1102,-5.1106,-5.12,-5.1204,-5.1275,-5.1259,-5.1356,-5.1375,-5.1352,-5.1428,-5.1398,-5.1479,-5.1461,-5.1616,-5.1587,-5.1607,-5.16,-5.1715,-5.1706,-5.2092,-5.214,-5.1784,-5.1787,-5.179,0,-5.1172,-5.1259,-5.1272,-5.1317,-5.1331,-5.1404,-5.1444,-5.1396,-5.1441,-5.1477,-5.1544,-5.1613,-5.1666,-5.1792,-5.1783,-5.1844,-5.1817,-5.1948,-5.1826,-5.1839,-5.182,-5.1816,-5.1825,-5.1973,-5.1977,-5.1981,-5.1983,0,-5.1485,-5.1466,-5.1526,-5.1581,-5.163,-5.1672,-5.1707,-5.1747,-5.1701,-5.1755,-5.1831,-5.1872,-5.1953,-5.2024,-5.2078,-5.2088,-5.2029,-5.2021,-5.2051,-5.2069,-5.2077,-5.2075,-5.1675,-5.2013,-5.201,-5.2008,-5.2006,-5.2005,-5.1718,-5.1791,-5.1811,-5.188,-5.19,-5.1934,-5.2001,-5.1993,-5.2056,-5.2118,-5.2085,-5.2174,-5.2197,-5.2264,-5.2282,-5.2351,-5.23,-5.2342,-5.2354,-5.2365,-5.2381,-5.2065,-5.236,-5.2359,-5.2358,-5.2358,-5.2357,0,-5.2028,-5.2036,-5.2099,-5.215,-5.2204,-5.2141,-5.2176,-5.2226,-5.2304,-5.233,-5.2383,-5.2471,-5.2538,-5.2533,-5.2595,-5.2651,-5.2625,-5.2669,-5.2665,-5.2669,-5.2422,-5.2391,-5.2688,-5.2688,-5.2688,-5.2688,-5.2688,-5.2688,-5.2196,-5.2316,-5.2299,-5.2429,-5.2436,-5.2521,-5.2547,-5.2578,-5.2598,-5.2698,-5.2753,-5.2749,-5.2763,-5.2824,-5.2883,-5.288,-5.2907,-5.2961,-5.2948,-5.2719,-5.2686,-5.2655,-5.2625,-5.2967,-5.2967,-5.3188,-5.319,-5.3192]},{"header":{"parameterUnit":"m.s-1","parameterCategory":1,"la1":30.2991,"la2":30.254,"lo1":-89.0895,"lo2":-89.0444,"dy":0.0017,"dx":0.0017,"nx":28,"ny":28,"refTime":"2025-02-13T09:00:00:Z","depth":0,"parameterNumber":3,"parameterNumberName":"V-component_of_WINDS"},"data":[0,0,0,0,0,0,0,0,0,0,0,0,0,0,0,0,0,0,0,0,0,0,0,0,0,0,0,0,0,0,0,0,0,0,0,0,0,0,0,0,0,0,0,0,0,0,0,0,0,0,0,0,0,0,0,0,0,0,-5.3899,-5.3899,0,-5.3948,-5.3949,-5.3949,-5.3904,-5.3902,-5.39,-5.3898,-5.3946,-5.3949,-5.3952,0,0,0,0,0,0,0,0,0,0,0,0,0,-5.376,-5.3763,-5.3899,-5.3899,-5.39,-5.3948,-5.3949,-5.395,-5.3904,-5.3902,-5.39,-5.3897,-5.3945,-5.3949,-5.3952,0,0,0,0,0,0,0,0,0,0,0,0,0,-5.3816,-5.3763,-5.3899,-5.3883,-5.3882,-5.3948,-5.3949,-5.395,-5.3904,-5.3902,-5.3899,-5.3896,-5.3944,-5.3948,-5.3953,-5.4035,0,0,-5.3966,-5.3968,0,0,0,0,0,0,0,0,-5.3813,-5.3821,-5.3885,-5.3884,-5.3883,-5.3917,-5.3917,-5.3978,-5.3905,-5.3896,-5.3898,-5.3895,-5.3938,-5.3943,-5.3958,-5.4038,-5.404,-5.3967,-5.3969,-5.3971,-5.3973,0,0,0,0,0,0,0,-5.3809,-5.3818,-5.3918,-5.3886,-5.3885,-5.3872,-5.3877,-5.3929,-5.3932,-5.3897,-5.3893,-5.39,-5.3937,-5.3954,-5.3959,-5.404,-5.3967,-5.3971,-5.3973,-5.3975,-5.4187,-5.4189,0,0,0,0,0,0,-5.3807,-5.3816,-5.3917,-5.392,-5.3841,-5.3877,-5.3882,-5.3909,-5.3931,-5.3932,-5.3902,-5.3898,-5.3948,-5.3954,-5.3961,-5.4057,-5.3971,-5.3976,-5.3978,-5.4184,-5.4187,-5.419,0,0,0,0,0,0,-5.3804,-5.3817,-5.3915,-5.3867,-5.3878,-5.3882,-5.3912,-5.3911,-5.3928,-5.3936,-5.3936,-5.3919,-5.3946,-5.3954,-5.4017,-5.4058,-5.3978,-5.3982,-5.418,-5.4185,-5.4189,-5.4251,0,0,0,0,0,0,-5.3801,-5.3816,-5.3849,-5.3868,-5.3881,-5.3971,-5.3915,-5.3914,-5.3936,-5.3931,-5.3951,-5.3952,-5.3945,-5.401,-5.4021,-5.4063,-5.3985,-5.4176,-5.4182,-5.4187,-5.4245,-5.4257,-5.4267,0,0,0,0,0,-5.3796,-5.3864,-5.3851,-5.3863,-5.3922,-5.3974,-5.3981,-5.3972,-5.394,-5.3972,-5.3976,-5.3951,-5.4052,-5.4017,-5.4029,-5.4072,-5.4174,-5.4181,-5.4187,-5.424,-5.4255,-5.4267,0,0,0,0,0,0,-5.3849,-5.3867,-5.3852,-5.3929,-5.395,-5.3966,-5.4006,-5.3988,-5.4018,-5.4012,-5.3998,-5.4003,-5.4068,-5.4076,-5.4037,-5.4152,-5.4107,-5.4117,-5.4144,-5.4158,-5.4168,-5.4164,-5.3989,0,0,0,0,0,-5.387,-5.3912,-5.3924,-5.3991,-5.4003,-5.4003,-5.4025,-5.4016,-5.4037,-5.4046,-5.4055,-5.4075,-5.4111,-5.4135,-5.4169,-5.4247,-5.4249,-5.4282,-5.4293,-5.4302,-5.431,-5.4349,-5.4363,-5.4212,-5.4212,-5.4212,0,0,-5.3914,-5.3928,-5.3955,-5.4002,-5.4018,-5.4059,-5.4011,-5.4058,-5.4088,-5.4052,-5.4111,-5.4119,-5.414,-5.421,-5.4241,-5.4219,-5.4352,-5.431,-5.4317,-5.432,-5.4357,-5.4371,-5.4384,-5.4217,-5.4216,-5.4215,0,0,-5.4014,-5.403,-5.4086,-5.4102,-5.4127,-5.4126,-5.4139,-5.4158,-5.4161,-5.422,-5.4194,-5.4229,-5.4292,-5.4308,-5.4324,-5.4428,-5.4405,-5.4439,-5.4495,-5.4534,-5.4545,-5.4556,-5.4591,-5.4603,-5.4447,-5.4447,-5.4447,0,-5.4064,-5.4127,-5.4117,-5.4165,-5.4185,-5.4156,-5.4211,-5.4227,-5.4261,-5.4274,-5.4249,-5.4326,-5.4339,-5.4411,-5.4436,-5.4451,-5.4464,-5.4436,-5.4545,-5.4555,-5.4565,-5.4598,-5.4611,-5.4451,-5.4451,-5.445,-5.445,0,-5.4187,-5.4231,-5.4273,-5.4306,-5.4331,-5.4383,-5.4378,-5.4405,-5.4393,-5.4394,-5.4453,-5.4467,-5.4502,-5.4519,-5.4508,-5.4588,-5.4573,-5.4547,-5.4502,-5.4583,-5.4613,-5.4626,-5.4456,-5.4455,-5.4454,-5.4453,0,0,-5.4323,-5.4348,-5.4364,-5.4377,-5.4401,-5.4434,-5.4483,-5.4517,-5.4539,-5.4563,-5.4602,-5.4655,-5.463,-5.4648,-5.4639,-5.4673,-5.4751,-5.4642,-5.4642,-5.466,-5.4837,-5.4856,-5.4871,-5.4736,-5.4739,-5.4741,-5.4835,0,-5.4422,-5.4508,-5.4499,-5.458,-5.4619,-5.459,-5.4632,-5.4651,-5.4653,-5.4685,-5.4686,-5.4723,-5.4689,-5.4699,-5.4732,-5.4735,-5.4786,-5.4728,-5.4771,-5.4772,-5.4764,-5.4887,-5.4907,-5.4995,-5.4847,-5.4849,-5.485,0,-5.4549,-5.4577,-5.4662,-5.4677,-5.4693,-5.4732,-5.4761,-5.4793,-5.4812,-5.481,-5.483,-5.4814,-5.4861,-5.4816,-5.4879,-5.484,-5.4857,-5.4861,-5.4864,-5.4866,-5.4815,-5.4891,-5.5023,-5.5036,-5.4869,-5.4868,-5.4867,0,-5.4637,-5.4696,-5.4753,-5.4766,-5.4786,-5.4813,-5.4823,-5.4839,-5.4859,-5.4885,-5.4897,-5.4928,-5.4944,-5.4967,-5.4959,-5.4927,-5.5023,-5.4978,-5.5022,-5.5022,-5.5042,-5.5041,-5.5177,-5.5056,-5.5056,-5.5056,-5.5056,0,-5.4747,-5.48,-5.4793,-5.4828,-5.4885,-5.4874,-5.493,-5.4936,-5.495,-5.4984,-5.4962,-5.4994,-5.4982,-5.5014,-5.5008,-5.5059,-5.5068,-5.5066,-5.5064,-5.5068,-5.5067,-5.5077,-5.507,-5.5059,-5.5059,-5.5058,-5.5057,0,-5.4855,-5.4852,-5.4913,-5.4926,-5.4931,-5.4972,-5.4983,-5.5015,-5.5015,-5.5058,-5.5068,-5.5067,-5.5103,-5.5097,-5.5137,-5.5132,-5.5196,-5.5188,-5.519,-5.5187,-5.5231,-5.5226,-5.5377,-5.5395,-5.5265,-5.5266,-5.5267,0,-5.4925,-5.4964,-5.4981,-5.5003,-5.5014,-5.505,-5.507,-5.5059,-5.5081,-5.5105,-5.5133,-5.5167,-5.5193,-5.5251,-5.5253,-5.5283,-5.5273,-5.5324,-5.5277,-5.5278,-5.5271,-5.5268,-5.527,-5.5332,-5.5334,-5.5335,-5.5336,0,-5.5048,-5.5044,-5.5075,-5.5105,-5.513,-5.5153,-5.5174,-5.5192,-5.5183,-5.5209,-5.5245,-5.5265,-5.5305,-5.5337,-5.5365,-5.5372,-5.5352,-5.5351,-5.5362,-5.5365,-5.5364,-5.5363,-5.5213,-5.5347,-5.5346,-5.5345,-5.5345,-5.5344,-5.5137,-5.517,-5.5187,-5.5221,-5.5235,-5.5254,-5.5284,-5.5288,-5.5318,-5.5349,-5.5341,-5.5381,-5.5397,-5.5431,-5.5442,-5.5472,-5.5453,-5.547,-5.5474,-5.5478,-5.5482,-5.5361,-5.5477,-5.5477,-5.5477,-5.5476,-5.5476,0,-5.5257,-5.5266,-5.5298,-5.5327,-5.5353,-5.5333,-5.5354,-5.5377,-5.5413,-5.5429,-5.5455,-5.5495,-5.5526,-5.5531,-5.556,-5.5583,-5.5574,-5.559,-5.5588,-5.5589,-5.5499,-5.5485,-5.5597,-5.5597,-5.5597,-5.5597,-5.5597,-5.5597,-5.5323,-5.5376,-5.5374,-5.5434,-5.5442,-5.5481,-5.5495,-5.5512,-5.5524,-5.557,-5.5596,-5.5599,-5.561,-5.5639,-5.5666,-5.5666,-5.5677,-5.5697,-5.5693,-5.5608,-5.5596,-5.5584,-5.5571,-5.57,-5.57,-5.5781,-5.5782,-5.5782]}]]